Terminal Aerodrome Forecast
Issued by NWS Boston, MA

Home | Current Version | Previous Version | Text Only | Print | Product List | Glossary On
Versions: 1 2 3 4 5 6 7 8 9 10 11 12 13 14 15 16 17 18 19 20 21 22 23 24 25 26 27
000
FTUS41 KBOX 250918 AAD
TAFBOS
TAF AMD
KBOS 250918Z 2509/2612 VRB03KT P6SM OVC006
     FM251100 VRB03KT P6SM SCT006 BKN070
     FM251200 24004KT P6SM SCT200
     FM252100 26008KT P6SM SCT150
     FM261100 30006KT P6SM FEW250=

USA.gov is the U.S. government's official web portal to all federal, state and local government web resources and services.